Find Unisat-6

NORAD ID: 40012 Int'l Des: 2014-033 Owner: GAUSS Country: I operational
LEOCIRCULARRETROGRADESSO

Current View

Loading 3D Globe...

About Unisat-6

Description loading...

Upcoming Passes

Passes for default location (London). Set your location on the main map for personalized predictions.

Altitude History

Loading altitude history...

Two-Line Element Set

1 40012U 14033C 26150.38275249 .00004885 00000-0 52596-3 0 9997
2 40012 97.7856 303.4118 0046351 126.2943 234.2568 14.88133719643511
Epoch: May 30, 2026 • Age: 13 hours

Current Status

Altitude 580.9 km
Velocity 7.59 km/s
Sub-Earth Point 56.87°N, 92.1°W
Launch Date Jun 19, 2014
Age 11.9 years
Type other

Technical Details

Classification Payload
Mass 19.00 kg
Dry Mass 19.00 kg
Total Mass 26.00 kg
Length 0.30 m
Diameter 0.30 m
Span 0.90 m
Shape Box+4 pan
Manufacturer GAUSS
Bus Type Unisat
Phase Status In Orbit
Owner/State GAUSS/I

Most Searched